Location: Newark
(34.0131°N, 4.3314°W)
Time: 15:34:35
(UTC+00:00)

Explorer 11/Cluster Stage 4 - Pass Details

Date: 30 October 2019
Orbit: 467 x 1259 km, 28.8° (Epoch: 20 November)

Event Time Altitude Azimuth Distance (km) Brightness Sun altitude
Rises 04:59:44 0° 242° (WSW) 3,605 - -20.2°
Reaches altitude 10° 05:02:48 10° 235° (SW) 2,516 - -19.6°
Exits shadow 05:04:52 20° 224° (SW) 1,827 8.1 -19.1°
Maximum altitude 05:08:11 36° 170° (S) 1,153 7.5 -18.4°
Drops below altitude 10° 05:12:34 10° 103° (ESE) 2,036 10.0 -17.5°
Sets 05:14:49 0° 95° (E) 2,837 11.3 -17.1°
